Location: Unspecified
(35.6961°N, 0.0000°E)
Time: 11:37:15
(UTC+00:00)

S-56A Canister/Altair - Pass Details

Date: 31 May 2019
Orbit: 633 x 2499 km, 38.9° (Epoch: 16 June)

Event Time Altitude Azimuth Distance (km) Brightness Sun altitude
Rises 23:27:37 0° 257° (WSW) 2,932 - -31.9°
Reaches altitude 10° 23:29:44 10° 259° (W) 2,077 - -31.9°
Maximum altitude 23:34:23 79° 346° (NNW) 782 - -32.1°
Exits shadow 23:37:59 24° 71° (ENE) 1,747 9.4 -32.1°
Drops below altitude 10° 23:40:36 10° 74° (ENE) 2,748 10.4 -32.2°
Sets 23:43:46 0° 75° (ENE) 3,974 11.3 -32.2°
